TimeCDT,TemperatureF,Dew PointF,Humidity,Sea Level PressureIn,VisibilityMPH,Wind Direction,Wind SpeedMPH,Gust SpeedMPH,PrecipitationIn,Events,Conditions,WindDirDegrees,DateUTC
12:16 AM,44.6,44.6,100,30.04,10.0,Calm,Calm,-,N/A,,Clear,0,2013-10-08 05:16:00
12:37 AM,42.8,42.8,100,30.04,10.0,Calm,Calm,-,N/A,,Clear,0,2013-10-08 05:37:00
12:56 AM,44.6,44.6,100,30.03,10.0,Calm,Calm,-,N/A,,Clear,0,2013-10-08 05:56:00
1:16 AM,46.4,44.6,93,30.04,10.0,Calm,Calm,-,N/A,,Clear,0,2013-10-08 06:16:00
1:36 AM,46.4,44.6,93,30.04,10.0,Calm,Calm,-,N/A,,Clear,0,2013-10-08 06:36:00
1:56 AM,46.4,44.6,93,30.05,10.0,Calm,Calm,-,N/A,,Clear,0,2013-10-08 06:56:00
2:16 AM,46.4,44.6,93,30.05,10.0,Calm,Calm,-,N/A,,Clear,0,2013-10-08 07:16:00
2:36 AM,46.4,44.6,93,30.05,10.0,Calm,Calm,-,N/A,,Clear,0,2013-10-08 07:36:00
2:56 AM,46.4,44.6,93,30.05,10.0,Calm,Calm,-,N/A,,Clear,0,2013-10-08 07:56:00
3:16 AM,46.4,44.6,93,30.05,10.0,Calm,Calm,-,N/A,,Clear,0,2013-10-08 08:16:00
3:36 AM,46.4,44.6,93,30.05,10.0,Calm,Calm,-,N/A,,Clear,0,2013-10-08 08:36:00
3:56 AM,46.4,44.6,93,30.05,10.0,Calm,Calm,-,N/A,,Clear,0,2013-10-08 08:56:00
4:16 AM,46.4,44.6,93,30.04,10.0,Calm,Calm,-,N/A,,Clear,0,2013-10-08 09:16:00
4:37 AM,46.4,44.6,93,30.04,10.0,Calm,Calm,-,N/A,,Clear,0,2013-10-08 09:37:00
4:56 AM,46.4,44.6,93,30.04,10.0,Calm,Calm,-,N/A,,Clear,0,2013-10-08 09:56:00
5:16 AM,46.4,44.6,93,30.04,10.0,Calm,Calm,-,N/A,,Clear,0,2013-10-08 10:16:00
5:37 AM,46.4,44.6,93,30.04,10.0,Calm,Calm,-,N/A,,Clear,0,2013-10-08 10:37:00
5:56 AM,46.4,44.6,93,30.04,10.0,Calm,Calm,-,N/A,,Clear,0,2013-10-08 10:56:00
6:16 AM,46.4,44.6,93,30.04,10.0,Calm,Calm,-,N/A,,Clear,0,2013-10-08 11:16:00
6:37 AM,44.6,44.6,100,30.04,10.0,Calm,Calm,-,N/A,,Clear,0,2013-10-08 11:37:00
6:56 AM,46.4,44.6,93,30.05,10.0,Calm,Calm,-,N/A,,Clear,0,2013-10-08 11:56:00
7:16 AM,46.4,44.6,93,30.05,10.0,Calm,Calm,-,N/A,,Clear,0,2013-10-08 12:16:00
7:37 AM,46.4,44.6,93,30.05,10.0,SSE,3.5,-,N/A,,Clear,150,2013-10-08 12:37:00
7:56 AM,48.2,46.4,93,30.04,10.0,Calm,Calm,-,N/A,,Clear,0,2013-10-08 12:56:00
8:16 AM,48.2,46.4,93,30.04,10.0,SSE,3.5,-,N/A,,Clear,160,2013-10-08 13:16:00
8:37 AM,51.8,48.2,88,30.04,10.0,SE,6.9,-,N/A,,Clear,140,2013-10-08 13:37:00
8:56 AM,53.6,50.0,88,30.04,10.0,SE,6.9,-,N/A,,Clear,130,2013-10-08 13:56:00
9:16 AM,53.6,46.4,77,30.04,10.0,SE,8.1,-,N/A,,Clear,130,2013-10-08 14:16:00
9:36 AM,55.4,50.0,82,30.04,10.0,SE,8.1,-,N/A,,Clear,130,2013-10-08 14:36:00
9:56 AM,59.0,50.0,72,30.04,10.0,SE,6.9,-,N/A,,Clear,130,2013-10-08 14:56:00
10:16 AM,59.0,48.2,67,30.03,10.0,ESE,5.8,-,N/A,,Clear,110,2013-10-08 15:16:00
10:36 AM,62.6,46.4,55,30.02,10.0,South,4.6,-,N/A,,Clear,180,2013-10-08 15:36:00
10:56 AM,66.2,46.4,49,30.02,10.0,SSW,4.6,-,N/A,,Clear,200,2013-10-08 15:56:00
11:16 AM,68.0,48.2,49,30.02,10.0,South,5.8,-,N/A,,Clear,190,2013-10-08 16:16:00
11:36 AM,69.8,46.4,43,30.01,10.0,South,3.5,-,N/A,,Clear,180,2013-10-08 16:36:00
11:56 AM,69.8,46.4,43,30.01,10.0,SSW,5.8,-,N/A,,Clear,200,2013-10-08 16:56:00
12:17 PM,71.6,44.6,38,30.01,10.0,SSW,5.8,-,N/A,,Clear,210,2013-10-08 17:17:00
12:20 PM,71.6,44.6,38,30.01,10.0,SSW,6.9,-,N/A,,Clear,200,2013-10-08 17:20:00
1:00 PM,75.2,46.4,36,29.99,10.0,South,6.9,-,N/A,,Clear,190,2013-10-08 18:00:00
1:18 PM,73.4,44.6,36,29.99,10.0,SSW,6.9,-,N/A,,Clear,200,2013-10-08 18:18:00
1:36 PM,73.4,41.0,31,29.98,10.0,SSW,8.1,18.4,N/A,,Clear,210,2013-10-08 18:36:00
1:56 PM,73.4,42.8,33,29.98,10.0,SSW,9.2,17.3,N/A,,Clear,200,2013-10-08 18:56:00
2:17 PM,73.4,41.0,31,29.97,10.0,SSW,9.2,23.0,N/A,,Clear,200,2013-10-08 19:17:00
2:36 PM,73.4,41.0,31,29.97,10.0,SSW,5.8,19.6,N/A,,Clear,210,2013-10-08 19:36:00
2:56 PM,73.4,41.0,31,29.97,10.0,South,5.8,18.4,N/A,,Clear,190,2013-10-08 19:56:00
3:17 PM,77.0,42.8,29,29.97,10.0,South,12.7,18.4,N/A,,Clear,190,2013-10-08 20:17:00
3:36 PM,77.0,42.8,29,29.96,10.0,SSW,8.1,16.1,N/A,,Clear,200,2013-10-08 20:36:00
3:43 PM,77.0,42.8,29,29.96,10.0,South,4.6,16.1,N/A,,Clear,180,2013-10-08 20:43:00
4:15 PM,77.0,42.8,29,29.95,10.0,SSW,4.6,18.4,N/A,,Clear,200,2013-10-08 21:15:00
4:35 PM,77.0,42.8,29,29.95,10.0,South,4.6,18.4,N/A,,Clear,190,2013-10-08 21:35:00
4:55 PM,75.2,42.8,31,29.95,10.0,South,8.1,-,N/A,,Clear,180,2013-10-08 21:55:00
5:15 PM,75.2,42.8,31,29.95,10.0,South,4.6,-,N/A,,Clear,170,2013-10-08 22:15:00
5:40 PM,75.2,42.8,31,29.95,10.0,South,5.8,-,N/A,,Clear,170,2013-10-08 22:40:00
5:52 PM,73.4,42.8,33,29.95,10.0,South,4.6,-,N/A,,Clear,170,2013-10-08 22:52:00
5:56 PM,73.4,42.8,33,29.95,10.0,SSE,5.8,-,N/A,,Clear,160,2013-10-08 22:56:00
6:16 PM,69.8,42.8,38,29.96,10.0,SSE,4.6,-,N/A,,Clear,160,2013-10-08 23:16:00
6:36 PM,69.8,42.8,38,29.96,10.0,SSE,3.5,-,N/A,,Clear,150,2013-10-08 23:36:00
6:56 PM,60.8,44.6,55,29.97,10.0,SE,5.8,-,N/A,,Clear,140,2013-10-08 23:56:00
7:16 PM,62.6,44.6,52,29.97,10.0,SE,5.8,-,N/A,,Clear,140,2013-10-09 00:16:00
7:36 PM,64.4,44.6,49,29.97,10.0,SSE,4.6,-,N/A,,Clear,150,2013-10-09 00:36:00
7:56 PM,68.0,44.6,43,29.97,10.0,SSE,6.9,-,N/A,,Clear,150,2013-10-09 00:56:00
8:16 PM,68.0,44.6,43,29.97,10.0,SSE,3.5,-,N/A,,Clear,160,2013-10-09 01:16:00
8:36 PM,69.8,44.6,40,29.98,10.0,SSE,4.6,-,N/A,,Clear,160,2013-10-09 01:36:00
8:56 PM,66.2,44.6,46,29.98,10.0,SSE,5.8,-,N/A,,Clear,160,2013-10-09 01:56:00
9:17 PM,66.2,42.8,43,29.98,10.0,South,3.5,-,N/A,,Clear,170,2013-10-09 02:17:00
9:36 PM,66.2,42.8,43,29.99,10.0,SSE,4.6,-,N/A,,Clear,160,2013-10-09 02:36:00
9:56 PM,66.2,42.8,43,29.99,10.0,South,3.5,-,N/A,,Clear,190,2013-10-09 02:56:00
10:17 PM,68.0,44.6,43,30.00,10.0,South,4.6,-,N/A,,Clear,190,2013-10-09 03:17:00
10:36 PM,66.2,42.8,43,30.01,10.0,South,5.8,-,N/A,,Clear,170,2013-10-09 03:36:00
10:56 PM,66.2,44.6,46,30.01,10.0,South,5.8,-,N/A,,Clear,190,2013-10-09 03:56:00
11:16 PM,66.2,44.6,46,30.01,10.0,South,3.5,-,N/A,,Clear,170,2013-10-09 04:16:00
11:36 PM,64.4,44.6,49,30.02,10.0,South,6.9,-,N/A,,Clear,180,2013-10-09 04:36:00
11:57 PM,62.6,44.6,52,30.02,10.0,South,3.5,-,N/A,,Clear,180,2013-10-09 04:57:00